Weather History for Ahmedabad, India

Change the Weather History Date:

Friday, September 14, 2012

  Actual Average Record
Temperature  
Mean Temperature 84 °F -  
Max Temperature 91 °F 90 °F 98 °F (2013)
Min Temperature 77 °F 73 °F 75 °F (2005)
Cooling Degree Days 19    
Growing Degree Days 34 (Base 50)    
Moisture  
Dew Point 75 °F    
Average Humidity 77    
Maximum Humidity 98    
Minimum Humidity 61    
Precipitation  
Precipitation 0.00 in 0.07 in - ()
Sea Level Pressure  
Sea Level Pressure 29.64 in    
Wind  
Wind Speed 6 mph ()    
Max Wind Speed 12 mph    
Max Gust Speed -    
Visibility 2.1 miles    
Events Rain , Thunderstorm    
Averages and records for this station are not official NWS values.
T = Trace of Precipitation, MM = Missing Value Source: Averaged Metar Reports

Daily Weather History Graph

Daily Weather History Graph

Search for Another Location

Airport:

Trip Planner

Search our weather history database for the weather conditions in past years. The results will help you decide how hot, cold, wet, or windy it might be!

Date:

Astronomy

Sep. 14, 2012 Rise Set
Actual Time 6:25 AM IST 6:43 PM IST
Civil Twilight 6:03 AM IST 7:06 PM IST
Nautical Twilight 5:36 AM IST 7:32 PM IST
Astronomical Twilight 5:10 AM IST 7:59 PM IST
Moon 4:29 AM IST (9/14) 5:20 PM IST (9/14)
Length of Visible Light 13h 03m
Length of Day
12h 18m
Waning Crescent, 4% of the Moon is Illuminated
Sep 14
Waning Crescent
Sep 16
New
Sep 23
First Quarter
Sep 30
Full
Oct 8
Last Quarter

Hourly Weather History & Observations

Time (IST) Temp. Heat Index Dew Point Humidity Pressure Visibility Wind Dir Wind Speed Gust Speed Precip Events Conditions
12:10 AM 80.6 °F 84.6 °F 71.6 °F 74% 29.68 in 1.2 mi SSW 5.8 mph - N/A Rain Light Rain
12:40 AM 78.8 °F - 69.8 °F 74% 29.68 in 1.6 mi WSW 5.8 mph - N/A Rain Light Rain
1:10 AM 78.8 °F - 69.8 °F 74% 29.68 in 1.6 mi West 6.9 mph - N/A Rain Light Rain
2:10 AM 78.8 °F - 69.8 °F 74% 29.65 in 1.9 mi WSW 4.6 mph - N/A   Haze
2:30 AM 79 °F - 78 °F 95% 29.64 in 1 mi SSW 4.6 mph - -   Haze
2:40 AM 78.8 °F - 69.8 °F 74% 29.62 in 1.9 mi SW 4.6 mph - N/A   Haze
3:10 AM 80.6 °F 84.6 °F 71.6 °F 74% 29.62 in 1.9 mi SSW 5.8 mph - N/A   Haze
3:40 AM 80.6 °F 83.9 °F 69.8 °F 70% 29.62 in 1.9 mi SW 5.8 mph - N/A   Haze
4:10 AM 80.6 °F 84.6 °F 71.6 °F 74% 29.62 in 1.9 mi SSW 5.8 mph - N/A   Haze
4:40 AM 78.8 °F - 71.6 °F 78% 29.62 in 1.9 mi SSW 5.8 mph - N/A   Haze
5:10 AM 78.8 °F - 71.6 °F 78% 29.62 in 1.9 mi South 4.6 mph - N/A   Haze
5:30 AM 78 °F - 77 °F 95% 29.65 in 1 mi SW 4.6 mph - -   Haze
5:40 AM 78.8 °F - 71.6 °F 78% 29.62 in 1.9 mi SSW 4.6 mph - N/A   Haze
6:10 AM 78.8 °F - 71.6 °F 78% 29.65 in 1.9 mi SSW 4.6 mph - N/A   Haze
6:40 AM 78.8 °F - 71.6 °F 78% 29.65 in 1.9 mi SSW 5.8 mph - N/A   Haze
7:10 AM 80.6 °F 84.6 °F 71.6 °F 74% 29.65 in 1.9 mi SSW 5.8 mph - N/A   Haze
7:40 AM 80.6 °F 84.6 °F 71.6 °F 74% 29.68 in 1.9 mi SSW 8.1 mph - N/A   Haze
8:10 AM 80.6 °F 84.6 °F 71.6 °F 74% 29.68 in 1.9 mi SSW 9.2 mph - N/A   Haze
8:30 AM 80 °F - 78 °F 90% 29.70 in 1 mi SSW 4.6 mph - -   Haze
8:40 AM 82.4 °F 87.2 °F 71.6 °F 70% 29.68 in 1.9 mi SSW 9.2 mph - N/A   Haze
9:10 AM 82.4 °F 88.2 °F 73.4 °F 74% 29.71 in 2.5 mi SW 10.4 mph - N/A   Haze
10:10 AM 84.2 °F 92.3 °F 75.2 °F 74% 29.71 in 2.5 mi SW 9.2 mph - N/A   Haze
10:40 AM 84.2 °F 92.3 °F 75.2 °F 74% 29.71 in 2.5 mi SW 11.5 mph - N/A   Haze
11:30 AM 88 °F - 80 °F 72% 29.70 in 2 mi SW 4.6 mph - -   Haze
11:40 AM 87.8 °F 99.7 °F 77.0 °F 70% 29.68 in 3.1 mi SW 10.4 mph - N/A   Haze
12:10 PM 89.6 °F 108.2 °F 80.6 °F 75% 29.65 in 3.1 mi SW 10.4 mph - N/A   Haze
12:40 PM 89.6 °F 108.2 °F 80.6 °F 75% 29.65 in 3.1 mi SW 10.4 mph - N/A   Haze
1:10 PM 89.6 °F 108.2 °F 80.6 °F 75% 29.62 in 3.7 mi WSW 11.5 mph - N/A   Scattered Clouds
1:40 PM 91.4 °F 111.0 °F 80.6 °F 71% 29.62 in 3.7 mi SW 9.2 mph - N/A   Scattered Clouds
2:10 PM 91.4 °F 114.3 °F 82.4 °F 75% 29.59 in 3.7 mi SSW 10.4 mph - N/A   Scattered Clouds
2:30 PM 90 °F - 78 °F 61% 29.62 in 2 mi SSW 5.8 mph - -   Haze
2:40 PM 91.4 °F 111.0 °F 80.6 °F 71% 29.59 in 3.7 mi SW 11.5 mph - N/A   Scattered Clouds
3:10 PM 91.4 °F 111.0 °F 80.6 °F 71% 29.56 in 3.7 mi SSW 10.4 mph - N/A   Scattered Clouds
3:40 PM 91.4 °F 111.0 °F 80.6 °F 71% 29.56 in 3.7 mi SSW 10.4 mph - N/A   Scattered Clouds
5:30 PM 82 °F - 77 °F 82% 29.58 in 1 mi West 6.9 mph - - Thunderstorm Thunderstorm
5:40 PM 84.2 °F 92.3 °F 75.2 °F 74% 29.56 in 2.5 mi WNW 6.9 mph - N/A   Haze
6:10 PM 82.4 °F 89.5 °F 75.2 °F 79% 29.59 in 1.9 mi SW 6.9 mph - N/A Rain Light Rain
6:40 PM 82.4 °F 88.2 °F 73.4 °F 74% 29.59 in 2.2 mi SW 6.9 mph - N/A   Haze
7:10 PM 82.4 °F 88.2 °F 73.4 °F 74% 29.59 in 2.2 mi WSW 6.9 mph - N/A Rain Light Rain
8:10 PM - - 71.6 °F N/A% 29.62 in 1.9 mi SW 6.9 mph - N/A Rain , Thunderstorm Thunderstorms and Rain
8:30 PM 79 °F - 79 °F 98% 29.64 in 1 mi SW 3.5 mph - - Rain , Thunderstorm Thunderstorms and Rain
8:40 PM 80.6 °F 84.6 °F 71.6 °F 74% 29.62 in 1.9 mi SSW 5.8 mph - N/A Rain , Thunderstorm Light Thunderstorms and Rain
9:10 PM 80.6 °F 84.6 °F 71.6 °F 74% 29.62 in - South 4.6 mph - N/A Rain , Thunderstorm Light Thunderstorms and Rain
9:40 PM 80.6 °F 85.4 °F 73.4 °F 79% 29.65 in 1.9 mi South 4.6 mph - N/A Rain , Thunderstorm Light Thunderstorms and Rain
10:10 PM 80.6 °F 85.4 °F 73.4 °F 79% 29.65 in 1.9 mi South 4.6 mph - N/A Rain , Thunderstorm Light Thunderstorms and Rain
11:10 PM 80.6 °F 85.4 °F 73.4 °F 79% 29.65 in 1.9 mi SSW 4.6 mph - N/A   Haze
11:30 PM 81 °F - 79 °F 92% 29.66 in 1 mi South 4.6 mph - -   Haze
11:40 PM 80.6 °F 85.4 °F 73.4 °F 79% 29.65 in 1.9 mi SSW 4.6 mph - N/A   Haze